Theta_e
342 345 342 338 336 335 334 332 334 331 336 337 337 337 340 341 339 338 339 338 335 333 327 328 330 330 331 333 334 331 330 339 341 340 339 338 337 335 334 333 332 332 337
343 344 341 339 336 335 334 333 335 332 334 337 337 336 335 335 334 334 339 340 336 332 331 325 324 326 329 329 332 333 334 333 334 336 335 336 338 337 332 328 327 328 327
343 343 341 339 337 335 334 333 335 334 333 334 336 336 336 335 333 331 331 332 332 329 329 325 330 337 337 335 329 326 330 328 328 327 328 329 334 336 330 321 322 321 321
344 342 340 338 337 334 333 332 335 335 335 333 332 332 333 333 333 333 332 330 329 326 327 325 324 328 332 333 334 335 332 332 337 337 335 334 328 329 325 320 319 319 319
343 340 340 339 337 334 333 332 334 334 334 335 335 334 333 332 332 333 335 335 331 325 323 324 324 324 326 327 327 328 331 334 335 334 333 334 337 335 324 322 320 319 322
343 342 340 339 337 335 333 333 334 335 335 334 335 335 335 334 331 332 333 332 332 330 326 323 323 323 324 325 325 325 324 325 325 327 332 334 335 336 324 321 322 322 320
341 341 341 339 337 335 334 334 334 335 335 334 335 334 334 333 331 328 326 327 327 326 323 324 325 324 323 323 323 323 322 321 321 324 325 330 332 336 330 324 323 324 319
337 338 339 339 338 336 335 335 335 334 334 333 333 332 333 332 332 330 327 325 324 323 323 322 322 322 323 322 321 320 319 320 320 320 321 323 329 333 335 332 320 324 323
333 333 336 338 338 338 337 336 335 334 333 333 332 332 332 332 331 330 329 330 329 327 324 323 322 322 322 322 321 320 320 321 322 323 323 324 327 332 333 334 321 319 320
338 337 333 332 332 333 333 333 333 333 334 334 334 333 333 333 336 336 335 335 334 333 332 327 325 323 323 322 322 321 321 321 323 324 327 330 329 329 332 333 330 320 319
332 334 337 338 339 334 331 332 333 334 334 333 332 334 336 335 336 338 339 338 337 337 336 335 330 327 325 324 325 324 322 321 321 326 330 332 333 332 330 332 333 329 321
326 329 333 337 339 339 340 336 334 335 334 334 336 338 338 339 341 339 339 340 340 340 338 337 336 332 329 327 328 329 328 327 326 328 329 330 331 332 332 331 331 333 326
322 326 330 335 338 339 341 338 339 340 338 337 338 338 338 339 340 340 340 339 339 339 339 339 339 338 337 337 336 333 333 331 331 331 331 331 331 331 331 330 331 331 330
320 322 329 334 336 338 338 338 337 336 336 336 335 336 337 337 337 337 337 337 337 337 338 338 338 338 338 339 338 338 336 335 334 333 332 332 333 333 333 331 330 329 329
317 318 328 329 330 333 334 332 330 329 329 328 330 332 333 334 333 333 333 334 334 333 334 335 335 336 336 337 337 338 337 335 335 336 337 336 336 334 332 331 332 333 331
316 316 324 326 324 325 327 326 325 324 323 324 325 324 326 326 326 327 327 327 327 327 328 328 329 330 331 333 334 335 336 336 336 335 335 334 332 333 331 329 329 330 330
314 315 323 324 323 322 321 320 318 317 318 319 319 319 321 321 319 320 319 319 319 319 321 322 324 325 322 326 325 328 328 329 331 332 329 327 327 326 327 327 327 326 328
313 314 320 323 321 319 316 313 311 311 311 311 312 314 315 311 312 313 313 313 313 314 315 315 316 314 315 318 321 322 326 327 328 320 315 318 321 315 313 320 324 322 321
312 313 318 322 320 315 313 311 310 308 308 308 307 308 308 306 304 305 305 305 305 304 306 307 307 306 306 311 314 319 321 321 320 311 308 306 310 303 310 317 319 316 315
311 312 314 323 319 313 312 310 307 305 304 305 305 304 305 304 303 303 303 303 302 301 301 302 304 303 302 305 311 320 312 310 310 307 304 303 305 300 310 311 305 311 306
309 311 311 316 319 312 311 309 306 304 304 305 305 305 304 303 302 303 304 303 301 300 300 300 303 303 301 301 307 310 315 312 309 307 303 298 301 299 305 307 301 310 301
308 308 309 311 312 312 311 307 305 304 303 303 304 304 303 301 299 303 303 301 299 296 297 297 298 301 301 301 304 307 306 307 301 307 301 297 296 297 300 302 297 304 298
306 307 307 309 310 309 307 306 305 304 302 300 301 301 300 299 296 298 299 297 297 294 296 297 298 297 297 298 299 302 301 302 304 305 302 297 296 297 298 297 297 298 298
305 305 306 306 306 306 306 306 304 303 302 299 299 300 299 298 297 295 297 296 296 294 294 295 297 296 297 297 297 297 302 298 298 299 299 298 296 296 298 299 294 297 295
305 304 305 305 305 304 305 304 304 303 302 300 298 297 298 298 297 295 296 295 295 294 292 293 294 295 295 297 297 297 297 299 297 298 297 297 296 296 297 297 294 296 294
304 304 304 304 304 304 303 303 303 302 301 300 298 297 297 297 297 296 296 296 294 293 291 291 292 293 294 294 294 295 296 297 297 297 296 296 296 295 295 295 293 295 294
Wind_Speed
8 13 14 15 15 18 19 21 21 21 23 23 24 24 23 22 22 22 20 18 17 15 14 14 13 13 14 15 16 16 16 15 15 14 13 11 11 11 11 10 10 10 10
13 16 16 16 17 18 19 20 21 20 19 19 19 19 19 19 19 18 18 16 15 15 13 13 14 15 15 14 14 14 14 13 12 11 11 10 8 9 8 7 7 6 6
16 17 18 17 18 18 19 18 19 19 18 17 16 16 16 16 16 16 15 15 14 15 14 12 12 12 13 12 12 12 12 12 11 9 7 7 7 5 3 5 5 5 5
13 19 19 19 18 18 18 17 17 16 16 16 15 15 14 13 13 13 13 13 13 12 13 13 11 10 10 10 10 10 10 8 8 6 5 3 2 2 2 2 3 4 4
18 20 19 19 18 18 17 16 15 14 14 14 13 13 13 12 11 11 10 10 11 11 11 11 10 10 9 7 6 6 5 4 2 2 4 6 7 5 5 4 3 3 3
17 18 19 18 18 18 17 15 14 13 12 11 11 11 10 9 9 8 8 8 8 8 8 8 8 8 7 6 6 5 4 2 1 3 6 8 8 8 8 6 7 5 3
16 16 15 15 16 17 16 15 14 12 10 10 9 9 8 7 7 7 7 6 6 6 5 5 4 5 5 4 2 2 2 2 2 2 5 8 7 8 10 9 10 10 6
17 16 15 14 13 14 13 13 11 10 9 9 8 7 6 6 6 6 5 5 5 4 3 2 1 1 1 1 2 2 2 4 5 5 7 8 10 11 15 14 12 13 12
17 16 14 13 13 12 11 10 8 8 7 7 6 6 5 5 5 5 6 5 4 4 3 3 3 3 4 4 5 5 6 6 10 9 9 9 9 11 16 17 15 15 15
17 14 13 12 11 10 10 9 7 7 6 5 4 3 2 2 2 2 1 2 3 4 6 6 6 6 7 8 9 9 9 10 11 13 13 13 13 12 11 18 20 19 18
16 13 10 9 10 11 9 9 7 6 4 3 1 2 3 4 4 4 6 7 7 7 7 8 9 10 10 10 11 12 13 14 14 14 17 16 14 15 14 18 23 24 22
17 13 10 10 12 10 9 9 8 7 5 3 2 1 1 2 2 4 4 5 8 9 8 9 10 12 13 14 14 14 13 14 13 13 16 17 17 16 16 18 19 24 25
17 15 11 10 10 10 10 12 9 7 6 4 6 4 3 2 5 5 3 4 3 3 5 7 6 8 11 14 16 17 17 17 16 16 16 18 21 22 21 20 19 20 24
18 15 13 12 11 11 12 13 12 12 10 9 8 8 6 6 6 6 5 6 5 5 5 6 7 8 9 11 12 15 17 18 20 21 22 24 25 27 28 26 24 23 24
16 14 13 12 12 12 13 15 14 15 14 14 13 10 9 8 8 8 7 6 7 7 8 8 9 9 10 11 11 12 13 12 13 14 16 17 19 19 19 20 22 27 28
12 14 11 12 12 13 16 15 15 14 14 12 11 11 11 11 10 10 10 10 9 9 9 9 9 9 9 9 10 10 11 11 13 15 13 13 13 14 15 17 18 16 18
12 11 10 13 15 17 20 19 18 17 14 14 13 12 10 11 13 13 14 14 14 13 12 12 11 10 12 11 12 10 11 12 13 13 17 19 18 20 18 18 19 20 17
11 12 10 16 19 21 21 22 22 22 22 21 20 18 16 17 16 16 17 17 16 16 16 16 17 16 16 15 12 15 17 17 23 23 26 25 24 25 26 22 19 24 20
11 11 12 19 21 22 22 23 24 23 24 23 23 23 21 21 21 22 22 21 20 21 21 21 21 22 22 16 14 16 21 25 23 25 29 30 27 28 25 23 22 22 22
13 12 15 19 22 22 23 23 24 25 24 24 24 24 22 22 22 23 23 23 23 24 25 23 23 25 27 16 11 18 26 26 23 27 29 29 28 31 23 24 25 24 28
14 11 15 20 23 23 23 23 24 26 24 24 24 21 23 23 23 22 22 23 25 28 28 26 25 28 34 25 10 10 7 11 22 23 26 31 29 30 24 21 27 21 27
15 12 12 16 20 18 18 20 21 25 24 23 22 23 22 22 22 22 22 25 24 26 28 29 27 24 27 33 11 6 4 4 21 15 23 28 30 27 26 22 27 19 25
16 13 13 14 18 20 22 24 23 23 21 21 21 22 21 20 22 22 21 23 24 26 28 27 26 26 23 23 30 11 3 2 13 9 17 22 32 27 22 23 25 23 25
15 13 14 16 18 21 22 23 20 22 23 20 20 19 19 19 21 22 21 21 23 25 26 26 24 26 26 24 12 22 15 13 3 4 7 13 27 26 21 19 29 21 26
17 15 16 17 18 19 19 20 22 23 21 18 18 19 18 18 20 21 20 21 22 24 23 22 23 24 24 23 23 15 14 7 17 2 4 17 22 22 16 16 26 19 27
20 18 18 18 18 18 19 19 19 20 18 16 16 17 17 17 18 19 19 19 22 22 23 21 20 20 20 20 19 19 17 7 8 5 3 15 18 20 24 16 23 19 20
Wind_Direction
150 154 149 136 124 111 107 103 101 104 111 111 109 107 104 99 94 91 89 87 85 84 86 93 100 98 97 98 99 101 103 101 101 100 98 94 98 106 103 105 106 108 110
148 152 145 136 124 114 111 107 106 106 111 113 110 107 104 100 95 90 88 88 84 82 88 90 97 99 99 102 106 108 109 110 109 109 106 95 109 110 105 112 110 112 119
138 147 142 134 124 118 115 111 111 110 111 113 111 106 102 99 98 96 90 86 87 89 94 94 95 90 90 94 99 105 111 113 105 100 100 91 108 129 115 118 122 127 132
138 143 140 132 125 121 120 118 116 111 110 110 110 108 104 100 95 91 92 92 89 90 101 106 105 99 93 93 96 98 100 107 111 68 50 43 52 204 208 169 144 147 153
144 141 136 131 128 124 124 122 121 115 111 110 110 110 108 103 98 95 90 86 89 94 102 113 118 117 113 108 107 107 110 124 126 1 341 313 287 285 264 246 223 185 184
142 138 132 134 132 131 131 129 127 122 117 113 110 107 102 96 94 96 97 93 89 94 106 118 126 128 128 132 137 140 150 168 237 335 345 328 285 267 259 253 246 234 241
131 127 131 133 134 134 136 135 134 130 126 121 116 111 106 99 91 87 86 85 91 90 95 113 133 140 138 142 146 160 191 241 268 314 339 348 337 270 265 266 252 247 251
120 120 124 128 132 132 135 134 135 133 131 125 116 105 97 93 94 88 84 81 77 74 71 78 110 170 232 213 212 241 264 289 291 299 312 321 322 282 255 267 261 255 255
111 115 120 127 132 132 132 131 133 131 128 121 108 93 85 79 80 77 79 67 50 34 19 4 337 309 294 295 297 296 295 299 301 306 309 318 315 318 254 260 265 261 258
101 105 111 117 124 128 128 127 124 115 109 102 91 68 45 47 41 14 11 17 4 353 351 335 322 314 310 307 302 299 297 292 295 304 313 320 319 307 285 266 266 265 262
89 89 102 102 122 110 118 121 119 117 117 122 104 24 29 13 341 317 310 312 314 318 326 328 319 313 306 299 301 306 306 304 302 303 316 325 326 313 303 294 277 270 269
74 78 91 102 113 129 134 144 144 147 143 122 109 61 67 2 315 298 297 302 298 298 305 310 312 312 308 304 303 303 302 307 309 304 313 319 322 323 315 323 300 274 271
75 74 80 101 119 125 110 145 122 115 126 96 64 73 98 82 62 72 58 54 30 344 331 328 312 311 310 301 295 298 300 300 299 300 306 313 316 315 312 308 301 290 278
79 66 77 96 115 118 121 120 113 101 92 81 61 54 55 53 46 42 40 31 31 3 353 357 350 339 330 342 334 308 298 295 297 301 307 309 309 304 302 303 301 289 283
78 68 79 89 102 116 117 112 103 91 82 73 60 45 37 43 43 44 39 32 22 7 358 345 335 325 320 321 325 337 342 327 315 318 324 329 336 335 333 333 312 298 296
84 78 89 90 98 112 110 105 94 86 77 65 59 56 63 58 53 54 50 41 33 23 14 7 1 359 345 330 316 314 314 316 326 345 352 353 4 349 350 360 353 330 312
80 89 105 111 108 105 101 95 88 82 79 74 69 65 66 59 56 56 56 52 47 41 41 37 34 27 11 8 357 353 351 351 14 48 50 49 43 37 35 32 29 10 17
84 83 110 119 116 108 100 93 87 82 79 76 74 72 69 67 64 64 60 54 49 47 47 39 32 27 21 15 11 23 35 66 70 59 51 47 44 30 29 31 34 27 35
101 100 108 125 120 112 103 95 88 82 78 75 75 74 74 71 69 68 65 60 56 55 53 47 41 33 23 22 27 45 72 74 67 46 43 41 37 27 30 36 35 32 24
108 106 103 133 128 121 114 103 93 86 82 79 75 74 75 73 70 70 66 63 59 58 56 54 49 42 30 17 41 86 82 65 57 44 37 37 35 24 33 27 23 19 20
102 114 107 126 140 131 122 113 99 89 85 81 78 78 74 72 68 71 70 66 62 58 54 53 53 45 35 30 36 64 74 56 53 39 30 29 25 26 33 28 23 17 8
112 109 112 126 141 140 128 116 107 98 89 86 83 76 73 70 70 71 70 65 60 59 56 51 50 53 50 41 32 23 7 358 5 25 16 20 15 21 22 19 10 11 3
118 114 111 119 138 135 128 122 113 106 96 86 80 78 73 74 72 70 68 65 62 58 59 55 54 52 53 55 52 53 38 352 325 342 1 5 8 10 11 8 0 3 359
129 126 119 126 132 134 136 130 127 116 102 93 90 88 81 74 71 70 69 65 64 59 58 58 55 56 52 48 48 51 69 59 356 323 338 347 355 360 357 348 353 360 353
141 137 129 129 126 130 131 128 124 112 110 106 99 91 86 78 72 69 71 70 66 60 54 52 53 53 52 56 49 39 34 33 20 339 310 328 342 346 339 332 345 348 347
147 141 134 130 127 126 130 128 125 122 124 119 106 96 89 83 76 71 68 65 62 58 50 48 50 50 49 49 47 45 41 31 357 356 302 325 324 332 330 326 338 336 341